| time (UTC) | temp F | wind direction | speed MPH | gust MPH | rain 1hr in | rain 24hr in | rain mn in | humidity % | barometer mb |
| 20260506073223 | 50 | 336 | 0.0 | 1.0 | 0.07 | 0.29 | 0.29 | 99 | 1006.0 |
| 20260506072720 | 50 | 349 | 1.0 | 1.0 | 0.12 | 0.29 | 0.29 | 99 | 1006.0 |
| 20260506072217 | 50 | 322 | 1.0 | 1.0 | 0.05 | 0.28 | 0.28 | 99 | 1006.1 |
| 20260506071714 | 50 | 346 | 0.0 | 1.0 | 0.00 | 0.27 | 0.27 | 99 | 1005.7 |
| 20260506071212 | 50 | 351 | 2.0 | 2.0 | 0.07 | 0.27 | 0.27 | 99 | 1006.1 |
| 20260506070709 | 50 | 350 | 0.0 | 1.0 | 0.14 | 0.27 | 0.27 | 99 | 1005.9 |
| 20260506070206 | 50 | 341 | 2.0 | 2.0 | 0.12 | 0.26 | 0.26 | 99 | 1005.9 |
| 20260506062143 | 51 | 344 | 1.0 | 1.0 | 0.12 | 0.21 | 0.21 | 98 | 1006.1 |
| 20260506061639 | 51 | 341 | 1.0 | 2.0 | 0.07 | 0.20 | 0.20 | 98 | 1006.5 |
| 20260506061137 | 51 | 346 | 0.0 | 1.0 | 0.05 | 0.19 | 0.19 | 98 | 1006.6 |
| 20260506060635 | 51 | 337 | 1.0 | 1.0 | 0.05 | 0.19 | 0.19 | 98 | 1006.5 |
| 20260506060132 | 51 | 351 | 1.0 | 2.0 | 0.07 | 0.18 | 0.18 | 98 | 1006.5 |
| 20260506051104 | 52 | 359 | 0.0 | 0.0 | 0.12 | 0.08 | 0.08 | 98 | 1007.6 |
| 20260506050602 | 52 | 346 | 3.0 | 3.0 | 0.12 | 0.08 | 0.08 | 98 | 1007.5 |
| 20260506045052 | 52 | 359 | 2.0 | 2.0 | 0.07 | 0.05 | 0.05 | 98 | 1007.5 |
| 20260506044550 | 53 | 4 | 0.0 | 0.0 | 0.07 | 0.05 | 0.05 | 98 | 1007.6 |
| 20260506044046 | 53 | 332 | 3.0 | 3.0 | 0.00 | 0.04 | 0.04 | 98 | 1007.9 |
| 20260506043543 | 53 | 356 | 0.0 | 0.0 | 0.05 | 0.04 | 0.04 | 98 | 1007.8 |
| 20260506043042 | 54 | 19 | 1.0 | 2.0 | 0.05 | 0.04 | 0.04 | 98 | 1007.7 |
| 20260506042541 | 55 | 346 | 1.0 | 1.0 | 0.07 | 0.03 | 0.03 | 98 | 1007.5 |
| 20260506042038 | 57 | 316 | 3.0 | 3.0 | 0.14 | 0.03 | 0.03 | 98 | 1007.8 |
| 20260506041537 | 57 | 334 | 0.0 | 0.0 | 0.07 | 0.02 | 0.02 | 98 | 1007.7 |
| 20260506041033 | 57 | 349 | 0.0 | 0.0 | 0.05 | 0.01 | 0.01 | 98 | 1007.7 |
| 20260506040531 | 57 | 347 | 1.0 | 1.0 | 0.05 | 0.01 | 0.01 | 98 | 1007.6 |
| 20260506040027 | 57 | 280 | 2.0 | 2.0 | 0.07 | 0.66 | 0.66 | 98 | 1007.8 |
| 20260506035524 | 57 | 271 | 1.0 | 1.0 | 0.07 | 0.66 | 0.66 | 98 | 1007.8 |
| 20260506035021 | 57 | 296 | 3.0 | 5.0 | 0.00 | 0.65 | 0.65 | 98 | 1007.8 |
| 20260506034518 | 57 | 334 | 1.0 | 1.0 | 0.05 | 0.65 | 0.65 | 98 | 1007.7 |
| 20260506034015 | 57 | 332 | 1.0 | 2.0 | 0.05 | 0.65 | 0.65 | 98 | 1007.9 |
| 20260506033512 | 57 | 345 | 1.0 | 1.0 | 0.07 | 0.64 | 0.64 | 98 | 1007.8 |
| 20260506033009 | 57 | 317 | 1.0 | 1.0 | 0.12 | 0.64 | 0.64 | 98 | 1007.8 |
| 20260506032507 | 57 | 333 | 1.0 | 1.0 | 0.12 | 0.63 | 0.63 | 98 | 1008.0 |
| 20260506032003 | 57 | 228 | 0.0 | 1.0 | 0.24 | 0.63 | 0.63 | 98 | 1007.8 |
| 20260506031501 | 57 | 230 | 3.0 | 3.0 | 0.42 | 0.61 | 0.61 | 97 | 1007.8 |
| 20260506030958 | 57 | 333 | 0.0 | 0.0 | 0.38 | 0.58 | 0.58 | 97 | 1007.9 |
| 20260506030456 | 57 | 333 | 0.0 | 0.0 | 0.31 | 0.55 | 0.55 | 97 | 1007.7 |
| 20260506025952 | 57 | 349 | 0.0 | 0.0 | 0.24 | 0.52 | 0.52 | 97 | 1008.0 |
| 20260506025449 | 57 | 255 | 0.0 | 0.0 | 0.07 | 0.49 | 0.49 | 97 | 1007.8 |
| 20260506024946 | 57 | 336 | 0.0 | 0.0 | 0.05 | 0.48 | 0.48 | 97 | 1007.9 |
| 20260506024443 | 57 | 343 | 0.0 | 0.0 | 0.05 | 0.48 | 0.48 | 97 | 1008.0 |
| 20260506023938 | 57 | 343 | 0.0 | 0.0 | 0.00 | 0.47 | 0.47 | 97 | 1007.8 |
| 20260506023435 | 57 | 344 | 0.0 | 0.0 | 0.00 | 0.47 | 0.47 | 97 | 1007.6 |
| 20260506022932 | 57 | 344 | 0.0 | 0.0 | 0.07 | 0.47 | 0.47 | 97 | 1007.9 |
| 20260506022430 | 57 | 348 | 0.0 | 0.0 | 0.07 | 0.47 | 0.47 | 97 | 1007.8 |
| 20260506021928 | 57 | 349 | 0.0 | 0.0 | 0.05 | 0.46 | 0.46 | 97 | 1008.0 |
| 20260506021425 | 57 | 349 | 0.0 | 0.0 | 0.05 | 0.46 | 0.46 | 97 | 1007.9 |
| 20260506020922 | 57 | 349 | 0.0 | 0.0 | 0.07 | 0.45 | 0.45 | 96 | 1007.9 |
| 20260506020420 | 57 | 350 | 0.0 | 0.0 | 0.07 | 0.45 | 0.45 | 96 | 1007.9 |
| 20260506015916 | 57 | 350 | 0.0 | 0.0 | 0.05 | 0.44 | 0.44 | 96 | 1007.9 |
| 20260506015414 | 57 | 350 | 0.0 | 0.0 | 0.24 | 0.44 | 0.44 | 96 | 1008.2 |
| 20260506014910 | 57 | 341 | 0.0 | 0.0 | 0.26 | 0.43 | 0.43 | 96 | 1008.2 |
| 20260506014408 | 57 | 310 | 1.0 | 1.0 | 0.12 | 0.40 | 0.40 | 96 | 1008.3 |
| 20260506013904 | 57 | 345 | 0.0 | 0.0 | 0.05 | 0.39 | 0.39 | 96 | 1007.7 |
| 20260506013402 | 57 | 345 | 0.0 | 0.0 | 0.00 | 0.38 | 0.38 | 96 | 1007.7 |
| 20260506012858 | 57 | 339 | 0.0 | 1.0 | 0.00 | 0.38 | 0.38 | 95 | 1007.7 |
| 20260506012355 | 57 | 347 | 0.0 | 0.0 | 0.00 | 0.38 | 0.38 | 95 | 1007.6 |
| 20260506011852 | 57 | 348 | 0.0 | 0.0 | 0.00 | 0.38 | 0.38 | 95 | 1007.6 |
| 20260506011349 | 57 | 342 | 0.0 | 0.0 | 0.00 | 0.38 | 0.38 | 95 | 1007.5 |
| 20260506010846 | 57 | 355 | 0.0 | 1.0 | 0.00 | 0.38 | 0.38 | 95 | 1007.4 |
| 20260506010344 | 57 | 344 | 1.0 | 1.0 | 0.07 | 0.38 | 0.38 | 95 | 1007.5 |
| 20260506005841 | 57 | 348 | 0.0 | 1.0 | 0.07 | 0.38 | 0.38 | 94 | 1007.5 |
| 20260506005338 | 57 | 346 | 2.0 | 2.0 | 0.05 | 0.37 | 0.37 | 94 | 1007.5 |
| 20260506004833 | 58 | 21 | 1.0 | 2.0 | 0.28 | 0.37 | 0.37 | 93 | 1008.0 |
| 20260506004331 | 58 | 341 | 3.0 | 5.0 | 1.68 | 0.36 | 0.36 | 93 | 1008.0 |
| 20260506003827 | 61 | 28 | 5.0 | 6.0 | 1.56 | 0.29 | 0.29 | 91 | 1008.2 |
| 20260506003324 | 63 | 335 | 2.0 | 2.0 | 0.42 | 0.10 | 0.10 | 87 | 1007.1 |
| 20260506002820 | 63 | 353 | 2.0 | 2.0 | 0.00 | 0.03 | 0.03 | 83 | 1006.8 |
| 20260506002317 | 63 | 351 | 0.0 | 0.0 | 0.00 | 0.03 | 0.03 | 82 | 1006.6 |
| 20260506001812 | 63 | 354 | 0.0 | 1.0 | 0.00 | 0.03 | 0.03 | 82 | 1006.6 |
| 20260506001310 | 63 | 358 | 0.0 | 0.0 | 0.00 | 0.03 | 0.03 | 82 | 1006.6 |
| 20260506000806 | 64 | 343 | 0.0 | 0.0 | 0.00 | 0.03 | 0.03 | 81 | 1006.5 |
| 20260506000304 | 64 | 345 | 1.0 | 1.0 | 0.00 | 0.03 | 0.03 | 81 | 1006.7 |
| 20260505235801 | 64 | 338 | 0.0 | 0.0 | 0.00 | 0.03 | 0.03 | 81 | 1007.0 |
| 20260505235258 | 64 | 345 | 0.0 | 0.0 | 0.00 | 0.03 | 0.03 | 81 | 1006.6 |
| 20260505234755 | 64 | 346 | 1.0 | 1.0 | 0.00 | 0.03 | 0.03 | 80 | 1006.7 |
| 20260505234253 | 64 | 347 | 1.0 | 1.0 | 0.00 | 0.03 | 0.03 | 80 | 1006.7 |
| 20260505233749 | 64 | 1 | 0.0 | 1.0 | 0.00 | 0.03 | 0.03 | 79 | 1006.7 |
| 20260505233247 | 64 | 346 | 0.0 | 0.0 | 0.00 | 0.03 | 0.03 | 78 | 1006.7 |
| 20260505232744 | 64 | 347 | 0.0 | 0.0 | 0.00 | 0.03 | 0.03 | 78 | 1006.8 |
| 20260505232242 | 64 | 333 | 0.0 | 0.0 | 0.00 | 0.03 | 0.03 | 78 | 1006.5 |
| 20260505231738 | 65 | 333 | 0.0 | 0.0 | 0.00 | 0.03 | 0.03 | 78 | 1006.8 |
| 20260505231237 | 65 | 332 | 0.0 | 0.0 | 0.00 | 0.03 | 0.03 | 77 | 1006.8 |
| 20260505230735 | 65 | 344 | 0.0 | 0.0 | 0.00 | 0.03 | 0.03 | 76 | 1006.8 |
| 20260505230231 | 65 | 349 | 0.0 | 0.0 | 0.00 | 0.03 | 0.03 | 76 | 1006.9 |
| 20260505225728 | 65 | 349 | 0.0 | 0.0 | 0.00 | 0.03 | 0.03 | 76 | 1006.7 |
| 20260505225225 | 65 | 341 | 1.0 | 1.0 | 0.00 | 0.03 | 0.03 | 76 | 1006.8 |
| 20260505224720 | 65 | 341 | 1.0 | 1.0 | 0.00 | 0.03 | 0.03 | 76 | 1007.0 |
| 20260505224218 | 65 | 349 | 1.0 | 1.0 | 0.00 | 0.03 | 0.03 | 76 | 1007.0 |
| 20260505223716 | 65 | 331 | 1.0 | 1.0 | 0.00 | 0.03 | 0.03 | 76 | 1007.3 |
| 20260505223211 | 65 | 334 | 0.0 | 0.0 | 0.00 | 0.03 | 0.03 | 76 | 1007.1 |
| 20260505222708 | 65 | 337 | 0.0 | 1.0 | 0.00 | 0.03 | 0.03 | 76 | 1007.3 |
| 20260505222203 | 65 | 327 | 1.0 | 1.0 | 0.00 | 0.03 | 0.03 | 75 | 1007.1 |
| 20260505221701 | 65 | 328 | 1.0 | 1.0 | 0.00 | 0.03 | 0.03 | 75 | 1007.0 |
| 20260505221158 | 65 | 330 | 0.0 | 1.0 | 0.00 | 0.03 | 0.03 | 75 | 1007.4 |
| 20260505220655 | 65 | 329 | 1.0 | 1.0 | 0.00 | 0.03 | 0.03 | 75 | 1007.1 |
| 20260505220153 | 65 | 334 | 0.0 | 0.0 | 0.00 | 0.03 | 0.03 | 75 | 1007.1 |
| 20260505215650 | 65 | 322 | 1.0 | 1.0 | 0.00 | 0.03 | 0.03 | 75 | 1007.3 |
| 20260505215148 | 65 | 305 | 1.0 | 1.0 | 0.00 | 0.03 | 0.03 | 75 | 1007.3 |
| 20260505214646 | 65 | 320 | 1.0 | 1.0 | 0.00 | 0.03 | 0.03 | 75 | 1007.3 |
| 20260505214143 | 65 | 312 | 1.0 | 1.0 | 0.00 | 0.03 | 0.03 | 75 | 1007.3 |
| 20260505213640 | 65 | 326 | 0.0 | 1.0 | 0.00 | 0.03 | 0.03 | 75 | 1007.5 |
| 20260505213137 | 65 | 324 | 1.0 | 1.0 | 0.00 | 0.03 | 0.03 | 75 | 1007.4 |
| 20260505212632 | 65 | 326 | 1.0 | 1.0 | 0.00 | 0.03 | 0.03 | 76 | 1007.5 |
| 20260505212130 | 64 | 336 | 1.0 | 1.0 | 0.00 | 0.03 | 0.03 | 76 | 1007.3 |
| 20260505211627 | 65 | 320 | 2.0 | 2.0 | 0.00 | 0.03 | 0.03 | 75 | 1007.4 |
| 20260505211124 | 64 | 335 | 2.0 | 2.0 | 0.00 | 0.03 | 0.03 | 75 | 1007.3 |
| 20260505210621 | 64 | 246 | 2.0 | 2.0 | 0.00 | 0.03 | 0.03 | 75 | 1007.5 |
| 20260505210118 | 65 | 312 | 2.0 | 2.0 | 0.00 | 0.03 | 0.03 | 74 | 1007.5 |
| 20260505205615 | 65 | 306 | 1.0 | 2.0 | 0.00 | 0.03 | 0.03 | 73 | 1007.4 |
| 20260505205113 | 66 | 347 | 1.0 | 1.0 | 0.00 | 0.03 | 0.03 | 71 | 1007.5 |
| 20260505204610 | 67 | 337 | 1.0 | 1.0 | 0.00 | 0.03 | 0.03 | 67 | 1007.4 |
| 20260505204108 | 68 | 325 | 1.0 | 1.0 | 0.00 | 0.03 | 0.03 | 66 | 1007.4 |
| 20260505203604 | 68 | 299 | 2.0 | 2.0 | 0.00 | 0.03 | 0.03 | 64 | 1007.1 |
| 20260505203101 | 68 | 190 | 1.0 | 1.0 | 0.00 | 0.03 | 0.03 | 62 | 1007.0 |
| 20260505202556 | 69 | 192 | 2.0 | 2.0 | 0.00 | 0.03 | 0.03 | 59 | 1007.1 |
| 20260505202053 | 69 | 327 | 1.0 | 1.0 | 0.00 | 0.03 | 0.03 | 60 | 1007.0 |
| 20260505201550 | 69 | 315 | 1.0 | 1.0 | 0.00 | 0.03 | 0.03 | 60 | 1007.1 |
| 20260505201048 | 69 | 315 | 1.0 | 1.0 | 0.00 | 0.03 | 0.03 | 60 | 1007.1 |
| 20260505200545 | 69 | 311 | 1.0 | 2.0 | 0.00 | 0.03 | 0.03 | 59 | 1007.3 |
| 20260505200042 | 69 | 3 | 0.0 | 1.0 | 0.00 | 0.03 | 0.03 | 58 | 1007.3 |
| 20260505195538 | 69 | 239 | 1.0 | 1.0 | 0.00 | 0.03 | 0.03 | 58 | 1007.1 |
| 20260505195036 | 69 | 323 | 1.0 | 1.0 | 0.00 | 0.03 | 0.03 | 60 | 1007.3 |
| 20260505194533 | 69 | 326 | 1.0 | 1.0 | 0.00 | 0.03 | 0.03 | 58 | 1007.7 |
| 20260505194028 | 69 | 324 | 1.0 | 1.0 | 0.00 | 0.03 | 0.03 | 59 | 1007.6 |
| 20260505193526 | 69 | 195 | 1.0 | 1.0 | 0.00 | 0.03 | 0.03 | 59 | 1007.9 |
| 20260505193023 | 69 | 258 | 5.0 | 8.0 | 0.00 | 0.03 | 0.03 | 58 | 1007.9 |
| 20260505192521 | 69 | 215 | 2.0 | 3.0 | 0.00 | 0.03 | 0.03 | 59 | 1007.9 |
| 20260505192018 | 69 | 334 | 1.0 | 1.0 | 0.00 | 0.03 | 0.03 | 59 | 1007.9 |
| 20260505191516 | 69 | 262 | 2.0 | 3.0 | 0.00 | 0.03 | 0.03 | 59 | 1007.9 |
| 20260505191014 | 69 | 261 | 2.0 | 3.0 | 0.00 | 0.03 | 0.03 | 58 | 1007.8 |
| 20260505190508 | 69 | 238 | 5.0 | 7.0 | 0.00 | 0.03 | 0.03 | 58 | 1007.9 |
| 20260505190005 | 68 | 300 | 1.0 | 2.0 | 0.00 | 0.03 | 0.03 | 59 | 1008.0 |
| 20260505185502 | 68 | 313 | 3.0 | 3.0 | 0.00 | 0.03 | 0.03 | 59 | 1008.0 |
| 20260505184958 | 68 | 302 | 2.0 | 3.0 | 0.00 | 0.03 | 0.03 | 59 | 1008.1 |
| 20260505184455 | 68 | 278 | 3.0 | 5.0 | 0.00 | 0.03 | 0.03 | 57 | 1008.0 |
| 20260505183951 | 69 | 261 | 2.0 | 3.0 | 0.00 | 0.03 | 0.03 | 58 | 1007.9 |
| 20260505183449 | 69 | 276 | 2.0 | 2.0 | 0.00 | 0.03 | 0.03 | 58 | 1008.0 |
| 20260505182945 | 70 | 256 | 2.0 | 3.0 | 0.00 | 0.03 | 0.03 | 57 | 1008.0 |
| 20260505182442 | 70 | 269 | 4.0 | 6.0 | 0.00 | 0.03 | 0.03 | 58 | 1008.0 |
| 20260505181938 | 70 | 240 | 4.0 | 5.0 | 0.00 | 0.03 | 0.03 | 56 | 1008.0 |
| 20260505181436 | 71 | 35 | 5.0 | 6.0 | 0.00 | 0.03 | 0.03 | 54 | 1007.8 |
| 20260505180933 | 71 | 306 | 4.0 | 6.0 | 0.00 | 0.03 | 0.03 | 54 | 1007.7 |
| 20260505180429 | 72 | 106 | 5.0 | 7.0 | 0.00 | 0.03 | 0.03 | 52 | 1007.7 |
| 20260505175926 | 72 | 262 | 5.0 | 5.0 | 0.00 | 0.03 | 0.03 | 52 | 1007.8 |
| 20260505175422 | 72 | 218 | 1.0 | 2.0 | 0.00 | 0.03 | 0.03 | 51 | 1007.7 |
| 20260505174918 | 71 | 326 | 3.0 | 3.0 | 0.00 | 0.03 | 0.03 | 53 | 1007.8 |
| 20260505174416 | 71 | 250 | 7.0 | 8.0 | 0.00 | 0.03 | 0.03 | 50 | 1007.4 |
| 20260505173912 | 72 | 254 | 5.0 | 6.0 | 0.00 | 0.03 | 0.03 | 51 | 1007.6 |
| 20260505173408 | 71 | 298 | 6.0 | 8.0 | 0.00 | 0.03 | 0.03 | 52 | 1007.6 |
| 20260505172905 | 71 | 200 | 3.0 | 5.0 | 0.00 | 0.03 | 0.03 | 55 | 1007.6 |
| 20260505172403 | 72 | 172 | 8.0 | 14.0 | 0.00 | 0.03 | 0.03 | 53 | 1007.6 |
| 20260505171903 | 72 | 335 | 2.0 | 3.0 | 0.00 | 0.03 | 0.03 | 53 | 1007.4 |
| 20260505171400 | 71 | 290 | 3.0 | 3.0 | 0.00 | 0.03 | 0.03 | 56 | 1007.4 |
| 20260505170856 | 71 | 343 | 2.0 | 2.0 | 0.00 | 0.03 | 0.03 | 54 | 1007.7 |
| 20260505170354 | 70 | 314 | 3.0 | 5.0 | 0.00 | 0.03 | 0.03 | 57 | 1007.6 |
| 20260505165848 | 70 | 262 | 3.0 | 5.0 | 0.00 | 0.03 | 0.03 | 56 | 1007.8 |
| 20260505165344 | 70 | 247 | 4.0 | 5.0 | 0.00 | 0.03 | 0.03 | 55 | 1007.7 |
| 20260505164840 | 71 | 158 | 3.0 | 5.0 | 0.00 | 0.03 | 0.03 | 55 | 1007.4 |
| 20260505164337 | 71 | 299 | 4.0 | 6.0 | 0.00 | 0.03 | 0.03 | 56 | 1007.4 |
| 20260505163836 | 71 | 264 | 5.0 | 7.0 | 0.00 | 0.03 | 0.03 | 54 | 1007.4 |
| 20260505163334 | 71 | 287 | 7.0 | 10.0 | 0.00 | 0.03 | 0.03 | 53 | 1007.3 |
| 20260505162832 | 71 | 245 | 2.0 | 2.0 | 0.00 | 0.03 | 0.03 | 56 | 1007.3 |
| 20260505162328 | 71 | 94 | 2.0 | 2.0 | 0.00 | 0.03 | 0.03 | 55 | 1007.3 |
| 20260505161825 | 70 | 286 | 4.0 | 5.0 | 0.00 | 0.03 | 0.03 | 55 | 1007.1 |
| 20260505161322 | 70 | 298 | 5.0 | 7.0 | 0.00 | 0.03 | 0.03 | 55 | 1007.0 |
| 20260505160819 | 70 | 19 | 3.0 | 3.0 | 0.00 | 0.03 | 0.03 | 56 | 1007.3 |
| 20260505160318 | 70 | 107 | 4.0 | 5.0 | 0.00 | 0.03 | 0.03 | 55 | 1007.4 |
| 20260505153256 | 68 | 225 | 2.0 | 3.0 | 0.00 | 0.03 | 0.03 | 61 | 1007.7 |
| 20260505152753 | 68 | 154 | 3.0 | 5.0 | 0.00 | 0.03 | 0.03 | 62 | 1007.6 |
| 20260505152249 | 67 | 342 | 5.0 | 6.0 | 0.00 | 0.03 | 0.03 | 66 | 1007.8 |
| 20260505151744 | 67 | 214 | 5.0 | 7.0 | 0.00 | 0.03 | 0.03 | 66 | 1007.8 |
| 20260505151242 | 66 | 204 | 3.0 | 3.0 | 0.00 | 0.03 | 0.03 | 68 | 1007.7 |
| 20260505150738 | 66 | 276 | 4.0 | 5.0 | 0.00 | 0.03 | 0.03 | 71 | 1008.0 |
| 20260505150235 | 65 | 218 | 1.0 | 2.0 | 0.00 | 0.03 | 0.03 | 72 | 1007.8 |
| 20260505140200 | 63 | 236 | 3.0 | 5.0 | 0.00 | 0.00 | 0.00 | 73 | 1007.7 |
| 20260505130124 | 65 | 304 | 2.0 | 2.0 | 0.00 | 0.00 | 0.00 | 63 | 1007.3 |
| 20260505124613 | 65 | 193 | 3.0 | 3.0 | 0.00 | 0.00 | 0.00 | 63 | 1007.4 |
| 20260505124110 | 65 | 159 | 5.0 | 7.0 | 0.00 | 0.00 | 0.00 | 63 | 1007.1 |
| 20260505123606 | 65 | 171 | 3.0 | 3.0 | 0.00 | 0.00 | 0.00 | 63 | 1007.3 |
| 20260505123103 | 65 | 182 | 4.0 | 5.0 | 0.00 | 0.00 | 0.00 | 63 | 1007.4 |
| 20260505122559 | 65 | 207 | 3.0 | 5.0 | 0.00 | 0.00 | 0.00 | 63 | 1007.4 |
| 20260505122056 | 65 | 244 | 3.0 | 3.0 | 0.00 | 0.00 | 0.00 | 63 | 1007.3 |
| 20260505121553 | 65 | 288 | 1.0 | 2.0 | 0.00 | 0.00 | 0.00 | 64 | 1007.3 |
| 20260505121050 | 65 | 175 | 3.0 | 3.0 | 0.00 | 0.00 | 0.00 | 64 | 1007.3 |
| 20260505120546 | 64 | 122 | 3.0 | 5.0 | 0.00 | 0.00 | 0.00 | 64 | 1007.3 |
| 20260505120042 | 64 | 151 | 4.0 | 6.0 | 0.00 | 0.00 | 0.00 | 64 | 1006.8 |
| 20260505115536 | 64 | 171 | 3.0 | 5.0 | 0.00 | 0.00 | 0.00 | 65 | 1007.3 |
| 20260505115034 | 64 | 135 | 3.0 | 5.0 | 0.00 | 0.00 | 0.00 | 65 | 1007.3 |
| 20260505114531 | 63 | 175 | 2.0 | 2.0 | 0.00 | 0.00 | 0.00 | 66 | 1007.1 |
| 20260505114027 | 63 | 193 | 3.0 | 3.0 | 0.00 | 0.00 | 0.00 | 66 | 1007.3 |
| 20260505113524 | 63 | 281 | 1.0 | 2.0 | 0.00 | 0.00 | 0.00 | 66 | 1007.4 |
| 20260505113020 | 63 | 214 | 2.0 | 2.0 | 0.00 | 0.00 | 0.00 | 66 | 1007.0 |
| 20260505112516 | 63 | 189 | 3.0 | 3.0 | 0.00 | 0.00 | 0.00 | 66 | 1007.1 |
| 20260505112014 | 63 | 147 | 1.0 | 2.0 | 0.00 | 0.00 | 0.00 | 66 | 1006.8 |
| 20260505111508 | 63 | 188 | 1.0 | 2.0 | 0.00 | 0.00 | 0.00 | 66 | 1006.8 |
| 20260505111004 | 63 | 136 | 4.0 | 5.0 | 0.00 | 0.00 | 0.00 | 66 | 1006.8 |
| 20260505110501 | 63 | 262 | 3.0 | 3.0 | 0.00 | 0.00 | 0.00 | 66 | 1006.7 |
| 20260505101933 | 62 | 106 | 4.0 | 7.0 | 0.00 | 0.00 | 0.00 | 69 | 1006.3 |
| 20260505101427 | 62 | 189 | 3.0 | 3.0 | 0.00 | 0.00 | 0.00 | 69 | 1006.3 |
| 20260505100923 | 62 | 189 | 3.0 | 3.0 | 0.00 | 0.00 | 0.00 | 69 | 1005.8 |
| 20260505100420 | 62 | 244 | 2.0 | 3.0 | 0.00 | 0.00 | 0.00 | 69 | 1006.2 |
| 20260505095915 | 62 | 249 | 3.0 | 3.0 | 0.00 | 0.00 | 0.00 | 69 | 1006.1 |
| 20260505095413 | 62 | 205 | 1.0 | 1.0 | 0.00 | 0.00 | 0.00 | 68 | 1006.1 |
| 20260505094909 | 62 | 215 | 2.0 | 2.0 | 0.00 | 0.00 | 0.00 | 68 | 1006.0 |
| 20260505094406 | 63 | 191 | 2.0 | 3.0 | 0.00 | 0.00 | 0.00 | 68 | 1006.0 |
| 20260505093901 | 63 | 187 | 3.0 | 3.0 | 0.00 | 0.00 | 0.00 | 68 | 1006.0 |
| 20260505093359 | 63 | 197 | 4.0 | 5.0 | 0.00 | 0.00 | 0.00 | 68 | 1006.0 |
| 20260505092856 | 63 | 182 | 3.0 | 5.0 | 0.00 | 0.00 | 0.00 | 68 | 1005.8 |
| 20260505092354 | 63 | 137 | 5.0 | 6.0 | 0.00 | 0.00 | 0.00 | 68 | 1006.0 |
| 20260505091851 | 63 | 264 | 3.0 | 5.0 | 0.00 | 0.00 | 0.00 | 68 | 1005.9 |
| 20260505091349 | 63 | 184 | 2.0 | 2.0 | 0.00 | 0.00 | 0.00 | 68 | 1005.7 |
| 20260505090847 | 63 | 208 | 3.0 | 5.0 | 0.00 | 0.00 | 0.00 | 68 | 1005.7 |
| 20260505090345 | 63 | 153 | 3.0 | 3.0 | 0.00 | 0.00 | 0.00 | 68 | 1005.6 |
| 20260505085841 | 63 | 200 | 2.0 | 2.0 | 0.00 | 0.00 | 0.00 | 68 | 1005.7 |
| 20260505085339 | 63 | 134 | 4.0 | 5.0 | 0.00 | 0.00 | 0.00 | 68 | 1005.7 |
| 20260505084837 | 63 | 153 | 4.0 | 5.0 | 0.00 | 0.00 | 0.00 | 68 | 1005.5 |
| 20260505084335 | 63 | 189 | 4.0 | 6.0 | 0.00 | 0.00 | 0.00 | 68 | 1005.7 |
| 20260505083832 | 63 | 160 | 5.0 | 6.0 | 0.00 | 0.00 | 0.00 | 68 | 1005.4 |
| 20260505083330 | 63 | 136 | 5.0 | 6.0 | 0.00 | 0.00 | 0.00 | 67 | 1005.5 |
| 20260505082826 | 63 | 193 | 3.0 | 3.0 | 0.00 | 0.00 | 0.00 | 67 | 1005.4 |
| 20260505082322 | 63 | 175 | 6.0 | 8.0 | 0.00 | 0.00 | 0.00 | 67 | 1005.6 |
| 20260505081819 | 63 | 156 | 3.0 | 5.0 | 0.00 | 0.00 | 0.00 | 67 | 1005.4 |
| 20260505081316 | 63 | 177 | 4.0 | 5.0 | 0.00 | 0.00 | 0.00 | 67 | 1005.5 |
| 20260505080812 | 63 | 186 | 2.0 | 3.0 | 0.00 | 0.00 | 0.00 | 67 | 1005.3 |
| 20260505080308 | 63 | 183 | 4.0 | 6.0 | 0.00 | 0.00 | 0.00 | 67 | 1005.2 |